DELTA 1 DEB, 10712

Orbit data source: Space-Track

DELTA 1 DEB, 10712 is space debris in SSO originally from a launch on Thu, 29 Jul 1976 UTC launched from the Air Force Western Test Range (AFWTR). Debris objects in space refer to the collection of defunct objects orbiting the Earth. Examples of debris include non-operational satellites, rocket bodies, and fragments generated from explosions, collisions, or faulty payload assembly.

Loading next visibility...
Identifier
10712, 1976-077AH
Orbit
SSO
Last TLE update
16 hours ago
Origin
Manufacturer
Unknown
Mission
Spacecraft
Bus & Motor
Unknown
Mass
Unknown
Launch date (UTC)
1976-07-29 (49 years ago)
Launch vehicle
Unknown
Launch site
Air Force Western Test Range (AFWTR)
Object type
Payload
Rocket body
Debris
Shape & HBR
Unknown
Radar Cross Section
Small (<0.1 m²)

Expand to show TLE details & history

TLE from 16 hours ago
0 DELTA 1 DEB
1 10712U 76077AH  25181.70993198  .00000335  00000-0  28328-2 0  9997
2 10712 102.2236 309.0455 0068600  31.5625  74.2917 12.39804688204080
Epoch: 2025-06-30T17:02Z
TLE epoch observation values (Epoch: 2025-06-30T17:02:18.123Z)
Latitude
69.55387°
Longitude
-10.2183°
Altitude
1,504.978 km
Speed
7.125 km/s
True Right ascension
10h 57m 29s
True Declination
69° 27' 06"
Sunlit
Object was in daylight at epoch
Visualization orbit readout
Latitude
-66.79219°
Longitude
-75.05262°
Altitude
1,574.048 km
Speed
7.062 km/s
Apparent Right ascension
08h 03m 05s
Apparent Declination
-55° 53' 20"
Sunlit
Object is in daylight
Visualization observer readout
Local Sidereal Time
20:56:47
Azimuth
155.444° SSE
Elevation
-71.738°
Doppler factor
1
Orbital elements
Apogee altitude
1,559.098 km
Perigee altitude
1,450.941 km
Semi-major axis
7,883.156 km
Eccentricity
0.00686
Inclination
102.2236°
RAAN
309.0455°
Arg. of periapsis
31.5625°
True anomaly
Unknown
Mean anomaly
74.2917°
Eccentric anomaly
Unknown
Mean motion
3.10094 °/min
Orbital period
116.09 mins
BSTAR
0.0028328
Loading maneuver chart data...
Loading SW <> Apogee altitude chart data...
Loading historical data...
Loading historical data...
Loading historical data...
Loading historical data...
Loading historical data...
Loading historical data...
Loading historical data...

DELTA 1 DEB Visibility forecast

Observer location: undefined°, undefined°

Span
Click to sort rows by Start time (UTC) header in descending order
Start Az.
Max El. time (UTC)
Max El. Az.
Max El.
End time (UTC)
End Az.
10 mins2025-07-01 10:00:32.128Z225.596° WSW2025-07-01 10:05:32.128Z264.551° W18.548°2025-07-01 10:10:32.128Z305.287° NW
13 mins2025-07-01 20:14:32.128Z43.574° NE2025-07-01 20:20:32.128Z95.508° ESE26.933°2025-07-01 20:27:32.128Z153.492° SSE
14 mins2025-07-01 22:08:32.128Z7.753° NNE2025-07-01 22:14:32.128Z306.164° NW41.068°2025-07-01 22:22:32.128Z218.744° SW
6 mins2025-07-02 00:04:32.128Z334.289° NNW2025-07-02 00:07:32.128Z311.841° NW13.788°2025-07-02 00:10:32.128Z290.314° WNW
13 mins2025-07-02 07:20:32.128Z126.048° SE2025-07-02 07:26:32.128Z61.652° ENE35.902°2025-07-02 07:33:32.128Z354.966° N
4 mins2025-07-02 09:14:32.128Z199.775° SSW2025-07-02 09:18:32.128Z231.642° WSW29.968°2025-07-02 09:18:32.128Z231.642° WSW
|